Location: Bailleul
(50.3375°N, 2.8513°E)
Time: 20:51:20
(UTC+00:00)

Cosmos 2279 Rocket - Pass Details

Date: 19 April 2021
Orbit: 965 x 978 km, 82.9° (Epoch: 18 May)

Event Time Altitude Azimuth Distance (km) Brightness Sun altitude
Rises 19:58:04 0° 174° (S) 3,640 6.6 -10.6°
Reaches altitude 10° 20:00:35 10° 170° (S) 2,697 5.9 -10.9°
Maximum altitude 20:06:37 59° 93° (E) 1,108 4.0 -11.7°
Drops below altitude 10° 20:12:42 10° 16° (NNE) 2,717 6.6 -12.5°
Sets 20:15:15 0° 13° (NNE) 3,670 7.3 -12.9°
